Погода в Смоленске

Хотите узнать прогноз погоды в Смоленске? Тогда Вам сюда: Погода в Смоленске

Поиск расширенной информации на нашем сайте:

Полезная информация:

Новости сайта



02.01.2020
Опубликован Долгосрочный прогноз погоды по городам России и ближнего зарубежья на январь 2020 года.
Карты: Прогноз на январь и февраль 2020 года, Сравнение прогнозируемой аномалии приземной температуры воздуха на январь 2020 года по разным моделям.




Погода в Смоленске - сегодня

Время (UTC), дата Ветер
(°,м/с) 
Видим.   Явления Облачность Т
(°С)
Тd
(°С)
f(%) Тe
(°С)
Pmin
(гПа)
dP
(гПа)
Po
(мм)
O2
(г/м3)
Тmin Tmax R s Состояние
почвы
15 28.11.20 100 (В) 4000 м  дымка{снег}  10/10 300 м 
[St]
+0.4 +0.1 98 -1  1022.3  1.6  744  299      0.0     
18 28.11.20 080 (В) 4000 м  дымка{снег}  10/10 300 м 
[St]
+0.2 -0.4 96 -2  1023.4  745  300    +0.5  0.0     
21 28.11.20 060 (СВ) 4000 м  дымка  10/10 300 м 
[St]
+0 -0.7 95 -1  1023.4  745  300           
00 29.11.20 050 (СВ) 2000 м  слаб. снег  10/10 200 м 
[Frnb|Ns]
+0.1 -0.4 96 -1  1022.1  -1.3  744  300           
03 29.11.20 050 (СВ) 1000 м  снег [диам. отлож. мокр. снега 3 мм]  10/10 100 м 
[Frnb|Ns]
+0.1 -0.1 99 -2  1020  -2.1  742  299  +0       
06 29.11.20 090 (В) 4000 м  дымка{снег} [диам. отлож. мокр. снега 3 мм]  10/10 200 м 
[Ns]
+0.1 -0.1 99 -2  1019.3  -0.6  742  299  +0    равномерный
мокрый или
старый снег
100% 
09 29.11.20 100 (В) 0500 м  туман  ?/?  
+0.5 +0.3 99 -1  1019.9  0.6  742  299           
12 29.11.20 100 (В) 0500 м  слаб. снег  ?/?  
[]
+0.2 +0.1 99 -1  1020.1  0.1  743  299           
15 29.11.20 120 (ЮВ) 1000 м  дымка{снег, туман}  10/10 200 м 
[Frnb|Ns]
+0.1 +0 99 -1  1020.8  0.7  743  299         
18 29.11.20 140 (ЮВ) 1000 м  слаб. снег  10/10 200 м 
[Frnb|Ns]
+0 -0.1 99 +1  1021.4  0.6  744  300    +0.6  0.9     
21 29.11.20 170 (Ю) н/о    н/о 
-0.6 -0.7 99 1023.4  1.8  745  301           
00 30.11.20 130 (ЮВ) 4000 м  дымка{снег}  10/0 средняя 
[As op]
-0.9 -1 99 1024.1  0.7  745  301           
03 30.11.20 130 (ЮВ) 4000 м  дымка  10/10 300 м 
[Sc]
-0.5 -0.6 99 1024.1  745  301  -1.1       
06 30.11.20 180 (Ю) 4000 м  дымка  10/10 200 м 
[St]
-0.4 -0.6 99 -1  1024.7  0.6  746  301  -1.1    0.6  равномерный
мокрый или
старый снег
100% 
09 30.11.20 170 (Ю) 10 км    6/0 средняя 
[Ac trans]
+0 -2 86 -1  1025.2  0.5  746  301           
12 30.11.20 170 (Ю) 10 км    8/4 600 м средняя 
[Sc|Ac trans]
-0.2 -2.7 83 -1  1025.5  0.3  746  301           
15 30.11.20 170 (Ю) 10 км    10/10 600 м 
[Sc]
-0.8 -2.3 90 1026.3  0.7  747  302           
18 30.11.20 170 (Ю) 10 км    10/10 600 м 
[Sc]
-1 -2.2 92 1026.7  0.4  747  302    +0.5       
21 30.11.20 180 (Ю) 10 км    10/10 600 м 
[Sc]
-1.2 -2.7 90 -1  1027.2  0.4  748  303           
00 01.12.20 160 (Ю) 4000 м  дымка  10/10 1000 м 
[Sc]
-2 -2.7 95 -1  1027.6  0.3  748  304           
03 01.12.20 тихо ()   4000 м  дымка  10/10 1000 м 
[Sc]
-2 -2.6 96 -2  1028.3  0.7  748  304  -2.2         
06 01.12.20 тихо ()   4000 м  дымка  10/10 1000 м 
[Sc]
-2.2 -2.6 97 -2  1029.6  1.2  749  305  -2.3      равномерный
мокрый или
старый снег
100% 
09 01.12.20 150 (ЮВ) 10 км    10/10 1000 м 
[Sc]
-0.7 -3.6 81 1030.5  1.1  750  303           
12 01.12.20 130 (ЮВ) 10 км    10/10 1000 м 
[Sc]
-0.7 -6.1 67 1031  0.4  750  304           
15 01.12.20 110 (В) 10 км    10/10 1000 м 
[Sc]
-1.7 -6 72 -1  1032.4  1.3  751  305           
Время (UTC), дата Ветер
(°,м/с) 
Видим.   Явления Облачность Т
(°С)
Тd
(°С)
f(%) Тe
(°С)
Pmin
(гПа)
dP
(гПа)
Po
(мм)
O2
(г/м3)
Тmin Tmax R s Состояние
почвы

Для получения пояснительной информации подведите курсор к названию столбца.

ПОГОДА в Смоленске - архив

Всё, что Вы хотите узнать о погоде в Смоленске - удобно и подробно!

Выберите нужную дату (начиная с 1 января 2019* года) и нажмите кнопку "Найти".
Будут отображены архивные сводки погоды по пункту Смоленск, начиная с указанной даты.


Отображать данные в формате CSV (для использования в таблицах Excel)


Внимание! Наш архив погоды предназначен исключительно для личного некоммерческого использования в познавательных целях. Если Вам необходимы официальные справки о состоянии погоды (для производственных, юридических, коммерческих и т.п. целей), обращайтесь в органы Росгидромета.

*Примечание: данная дата относится к архиву по метеостанциям СССР (Россия, СНГ, Балтия).
Архив по метеостанциям Зарубежной Европы и Азии (кроме Китая) хранится 10 дней, по другим регионам земного шара (Китай, Африка, Америка, Австралия, Океания) - 1 день.

Смоленск - район местоположения метеостанции


Название, широта, долгота, высота метеостанции:
Смоленск 54.8°ш. 32.1°д. 239 м над ур. моря [Российская Федерация]

Дополнительная информация

В oтличие oт бoльшинства пoгoдных сайтoв мы публикуем пoдрoбную метеoинфoрмацию в детальнoм прoфессиoнальнoм фoрмате.

Характеристики температуры и влажнoсти вoздуха измеряются на высoте 2 м в тени вдали oт зданий и деревьев.
Скoрoсть ветра измеряется на высoте 10 м (на урoвне рoста челoвека скoрoсть ветра ниже в 1.5-2 раза). Если метеoстанция нахoдится в гoрoде или в лесу, тo скoрoсть ветра занижена на 2-4 м/с пo сравнению с oткрытым местoм. Скoрoсть ветра над акватoриями крупных рек и oзёр, а также на вершинах хoлмoв на 2-5 м/с выше, чем в oбычных услoвиях.
Атмoсфернoе давление в разных тoчках местнoсти мoжет значительнo oтличаться oт давления на метеoстанции, в зависимoсти oт услoвий рельефа (при пoдъёме на 10 м давление пoнижается примернo на 1 мм рт.ст.).